User: anonymous   Login
Location: Unspecified
(0.0000°N, 0.0000°E)
Time: 02:44:38
(UTC+00:00)
Language:

OBJECT-A - Orbit

View from above orbital plane
View from above orbital plane
View from above satellite
View from above satellite

Ground track
Ground track

The orbit data is extracted from the following two-line orbital elements,

1 40381U 15004A   23075.84473526 0.00000000  00000-0  00000-0 0    05
2 40381  97.3521 148.3463 0001893  62.7454 297.2544 15.27650051    08
Epoch (UTC): 16 March 2023 20:16:25
Eccentricity: 0.0001893
inclination: 97.3521°
perigee height: 481 km
apogee height: 484 km
right ascension of ascending node: 148.3463°
argument of perigee: 62.7454°
revolutions per day: 15.27650051
mean anomaly at epoch: 297.2544°
orbit number at epoch: 0

The dashed part of the orbit path shows where the satellite is in the earth's shadow,  

DLR